Location: West Cummington
(42.4920°N, 72.9680°W)
Time: 13:01:55
(UTC-04:00)

Daily predictions for brighter satellites

Satellite Brightness Start Highest point End
(mag) Time Altitude Azimuth Time Altitude Azimuth Time Altitude Azimuth
H-2A R/B 2.2 21:01:04 10° SSE 21:05:33 69° ENE 21:10:02 10° N
SPOT 5 3.4 21:01:53 10° SE 21:06:17 44° ENE 21:10:57 10° N
Cosmos 1707 Rocket 4.3 21:02:13 10° N 21:06:18 37° ENE 21:10:23 10° SE
Cosmos 2298 Rocket 4.4 21:02:49 10° S 21:07:49 44° ESE 21:12:51 10° NNE
Cosmos 2333 Rocket 3.4 21:03:05 10° N 21:08:04 29° NE 21:13:02 10° ESE
ARGOS 4.5 21:04:13 10° ESE 21:08:32 25° ENE 21:12:50 10° N
CZ-4 DEB 4.3 21:05:57 10° SSW 21:08:57 36° W 21:11:57 10° NNW
USA 186 3.9 21:07:20 10° SW 21:08:58 17° W 21:10:39 10° NW
Cosmos 2315 Rocket 4.1 21:03:04 10° N 21:09:13 61° E 21:15:20 10° SSE
Cosmos 1666 Rocket 4.4 21:07:07 10° SSE 21:11:03 33° E 21:15:02 10° NNE
Cosmos 2297 Rocket 3.8 21:11:14 10° SE 21:14:16 15° E 21:17:18 10° ENE
Cosmos 2219 Rocket 2.9 21:10:45 10° NNW 21:16:02 40° ENE 21:21:17 10° SE
Cosmos 1455 4.4 21:16:47 10° NE 21:18:19 12° ENE 21:19:50 10° E
COSMOS 2428 2.8 21:14:34 10° NNW 21:20:18 84° ENE 21:25:59 10° SSE
Cosmos 1726 2.8 21:17:23 10° N 21:20:58 39° ENE 21:24:31 10° SSE
OTV 4 1.9 21:18:53 10° SSW 21:21:08 20° SSE 21:23:12 11° ESE
Cosmos 1680 Rocket 4.4 21:22:16 10° NNW 21:27:19 49° WSW 21:32:23 10° S
Lacrosse 4 Rocket 3.8 21:26:03 10° N 21:28:30 14° NE 21:30:57 10° ENE
Meteor 1-4 Rocket 3.4 21:26:12 10° N 21:29:41 36° ENE 21:32:34 13° SE
Cosmos 2058 2.8 21:27:06 10° S 21:31:12 82° E 21:35:19 10° N
Cosmos 2151 3.6 21:27:56 10° SSW 21:32:04 58° W 21:36:15 10° N
COSMOS 2455 4.3 21:28:11 10° N 21:33:11 26° NE 21:38:08 10° E
NOSS 3-1 (A) 3.4 21:32:11 10° SSW 21:38:02 79° ESE 21:44:35 10° NE
Terra 3.6 21:35:34 10° ESE 21:38:48 19° ENE 21:42:03 10° NNE
H-2A R/B 3.6 21:34:47 11° ESE 21:38:53 24° ENE 21:43:11 10° NNE
Cosmos 1898 Rocket 3.4 21:34:11 10° S 21:39:20 73° ESE 21:44:33 10° NNE
Cosmos 1980 4.3 21:35:00 10° NNW 21:40:25 46° ENE 21:44:58 14° SE
Cosmos 858 Rocket 4.5 21:36:26 10° S 21:41:36 69° ESE 21:46:46 10° NNE
Delta 2 Rocket 4.4 21:40:19 10° WSW 21:43:17 22° SSW 21:44:57 16° SSE
MetOp-B 4.1 21:42:05 10° SSE 21:47:23 86° ENE 21:52:46 10° NNW
Cosmos 1939 Rocket 4.1 21:44:04 10° SSW 21:47:43 38° W 21:51:22 10° NNW
Cosmos 2219 4.1 21:44:13 10° SW 21:49:49 53° WNW 21:55:27 10° NNE
Tiangong 1 0.9 21:47:00 10° WSW 21:50:07 84° SSE 21:53:13 10° E
SPOT 1/Viking Rocket 3.6 21:46:52 14° SSE 21:51:16 66° ENE 21:56:24 10° N
Cosmos 2237 Rocket 2.6 21:46:37 10° NNW 21:52:12 52° ENE 21:56:27 17° SE
OAO 2 Rocket 4.1 21:50:35 10° WSW 21:55:25 36° S 21:59:04 16° ESE
Cosmos 2150 Rocket 4.2 21:50:03 10° SSW 21:55:30 81° WNW 22:01:01 10° NNE
CZ-4 SHROUD 4.1 21:55:57 12° S 21:58:41 46° W 22:01:44 10° NNW
Cosmos 2082 3.9 21:53:47 10° S 21:59:17 50° ESE 22:04:48 10° NE
Sich 1 3.1 21:55:37 10° S 22:00:01 81° W 22:04:26 10° N
ATLAS 2AS CENTAUR R/B 3.2 21:53:10 10° S 22:00:15 50° ESE 22:07:55 10° NE
Cosmos 2360 Rocket 4.2 21:56:23 10° NW 22:00:37 22° W 22:04:50 10° SSW
Cosmos 1869 4.4 21:58:05 10° NNE 22:01:42 30° ENE 22:03:36 20° ESE
Cosmos 1271 Rocket 2.7 21:58:54 10° N 22:02:47 89° E 22:05:32 19° S
Cosmos 1626 2.9 22:02:07 23° SE 22:03:47 34° E 22:07:13 10° NNE
Cosmos 1862 Rocket 4.1 22:01:28 10° N 22:05:36 42° ENE 22:07:54 23° SE
NOAA 11 4.2 22:03:22 18° SSE 22:07:32 75° ENE 22:13:00 10° N
YAOGAN 6 2.9 22:04:58 16° S 22:07:42 63° W 22:11:16 10° NNW
Cosmos 1633 Rocket 3.3 22:03:29 10° SSW 22:07:51 71° W 22:12:13 10° N
Iridium 2 3.7 22:05:33 20° SSE 22:08:03 62° E 22:11:52 10° N
ATLAS 3B R/B 3.3 22:01:31 10° NNW 22:08:20 47° NE 22:13:27 16° ESE
ERBS 2.4 22:06:19 10° SW 22:09:49 82° NW 22:13:19 10° NE
Cosmos 2242 Rocket 3.8 22:09:08 10° NNW 22:13:36 70° W 22:17:06 17° S
Envisat 4.5 22:09:42 10° SSW 22:14:14 33° W 22:18:48 10° NNW
CZ-4 R/B 3.8 22:09:53 10° NNE 22:14:49 71° ESE 22:18:51 15° S
IGS 5A 4.5 22:14:27 22° ESE 22:16:20 33° ENE 22:20:05 10° N
CZ-4C R/B 3.2 22:16:16 30° SE 22:17:41 53° ENE 22:21:06 10° N
Cosmos 1703 3.4 22:14:44 13° SSW 22:18:08 75° W 22:22:03 10° N
USA 245 3.1 22:21:01 29° SW 22:21:41 38° WSW 22:23:49 10° NNW
Cosmos 192 4.3 22:20:11 10° NNW 22:25:06 72° ENE 22:27:44 28° SSE
USA 32 4.4 22:23:09 10° N 22:28:23 64° W 22:32:31 16° S
Cosmos 2227 Rocket 2.2 22:25:26 10° SSW 22:31:05 87° WNW 22:36:48 10° NNE
Cosmos 1937 Rocket 4.3 22:28:21 10° SW 22:33:27 53° WNW 22:38:32 10° N
DMSP B5D2-2 4.2 22:31:52 10° NNE 22:36:58 53° E 22:39:28 29° SSE
Cosmos 990 Rocket 4.3 22:34:11 10° SSW 22:39:17 65° WNW 22:44:26 10° NNE
DELTA 2 DEB (DPAF) 4.3 22:41:00 29° S 22:43:15 72° WSW 22:47:44 10° NNW
Okean 1-7 4.1 22:44:05 10° NNE 22:47:50 29° ENE 22:48:46 26° E
SL-16 R/B 2.3 22:42:18 10° NNW 22:47:58 65° ENE 22:50:40 31° SE
ARGOS 3.9 22:44:45 18° SSW 22:48:28 46° W 22:53:40 10° NNW
Cosmos 2333 Rocket 2.9 22:47:03 10° NW 22:52:32 46° WSW 22:55:43 23° SSW
Cosmos 1455 2.9 22:50:39 10° NNW 22:54:20 47° W 22:55:49 30° SSW
OTV 4 3.0 22:54:22 10° WSW 22:54:46 13° WSW 22:54:46 13° WSW
Cosmos 2297 Rocket 2.3 22:51:54 10° SSW 22:57:34 77° WNW 23:03:15 10° NNE
Cosmos 2219 Rocket 3.6 22:55:01 10° NW 22:59:48 30° WSW 23:03:07 17° SSW
Landsat 7 4.3 22:57:59 28° SSW 23:00:17 52° W 23:04:57 10° NNW
NOSS 2-3 (C) 4.0 23:00:19 36° S 23:02:09 56° ESE 23:07:37 10° NE
SeaSat 1 4.1 23:00:35 16° E 23:03:15 25° NE 23:07:12 10° N
Cosmos 44 Rocket 3.5 23:04:45 37° S 23:06:33 58° ESE 23:11:42 10° NE
Cosmos 1703 Rocket 3.5 23:02:50 10° N 23:07:13 79° E 23:08:18 50° SSE
Lacrosse 4 Rocket 1.5 23:03:21 10° NNW 23:07:48 81° WSW 23:08:55 50° SSE
Cosmos 1269 Rocket 4.1 23:05:16 10° NNW 23:10:34 72° WSW 23:12:32 39° S
Cosmos 1933 3.3 23:08:48 10° N 23:12:53 80° W 23:13:41 56° S
Terra 2.3 23:14:22 33° SSW 23:16:09 52° W 23:20:48 10° NNW
H-2A R/B 2.8 23:15:25 28° SSW 23:17:56 49° W 23:23:14 10° NNW
COSMOS 2455 3.0 23:13:37 10° NW 23:19:35 64° WSW 23:21:50 38° S
Cosmos 1603 4.3 23:16:45 10° NNW 23:22:16 49° ENE 23:24:29 32° ESE
Cosmos 1340 Rocket 4.3 23:23:54 23° ENE 23:23:54 23° ENE 23:26:33 10° NE
NOSS 2-3 (D) 3.8 23:21:10 34° SSW 23:23:22 81° ESE 23:29:02 10° NE
Tiangong 1 2.5 23:23:37 10° W 23:25:23 31° W 23:25:23 31° W
Cosmos 1048 Rocket 4.2 23:21:25 10° NNW 23:26:45 65° WSW 23:28:25 42° S
Cosmos 1125 Rocket 4.0 23:23:43 20° SW 23:27:19 58° WNW 23:32:35 10° NNE
Cosmos 2074 Rocket 4.2 23:25:48 39° SSE 23:27:53 57° E 23:34:03 10° NNE
Cosmos 158 Rocket 4.0 23:24:01 10° NNW 23:29:18 70° ENE 23:30:39 48° SE
CZ-4B R/B 3.7 23:29:56 15° ENE 23:29:56 15° ENE 23:31:55 10° NNE
Cosmos 2221 Rocket 3.9 23:25:59 10° NNW 23:30:30 62° W 23:31:33 47° SSW
Spot 4 4.5 23:29:25 36° SSW 23:30:56 48° W 23:35:40 10° NNW
Cosmos 1709 Rocket 4.3 23:27:43 25° SSW 23:31:17 61° W 23:37:20 10° N
Cosmos 2237 Rocket 3.9 23:31:28 10° NW 23:35:52 23° W 23:38:17 18° SW
Cosmos 372 Rocket 4.0 23:36:13 38° SSW 23:38:17 78° WNW 23:43:33 10° NNE
Cosmos 389 Rocket 2.6 23:34:52 10° NNW 23:38:11 68° WNW 23:38:11 68° WNW
Cosmos 374 Rocket 4.5 23:36:47 10° NW 23:40:45 87° NE 23:41:23 66° SE
Meteor 1-26 Rocket 4.3 23:39:03 10° NNW 23:44:40 71° W 23:46:26 45° SSW
Cosmos 1932 4.4 23:40:28 10° NW 23:46:53 86° WSW 23:49:04 45° SSE
Cosmos 1892 3.4 23:49:55 43° ENE 23:49:55 43° ENE 23:53:00 10° NNE
ATLAS 2AS CENTAUR R/B 4.0 23:44:08 10° WSW 23:51:25 45° NW 23:59:11 10° NNE
H-2A R/B 3.4 23:48:10 10° NNE 23:51:48 36° E 23:51:48 36° E
